Theta_e
347 348 350 349 350 346 344 340 335 326 326 329 326 331 333 335 334 331 329 330 330 328 328 328 328 327 328 329 330 330 332 335 337 339 340 340 339 339
347 347 348 351 351 347 345 345 342 336 327 328 326 327 329 330 331 328 327 327 327 325 325 324 325 325 326 326 327 329 331 333 335 335 334 334 334 335
345 344 345 347 346 347 347 345 342 336 322 321 324 323 321 321 322 323 323 322 323 324 323 322 321 322 322 323 323 325 327 328 329 330 331 331 331 331
339 338 342 345 344 344 343 341 341 339 326 318 319 317 317 318 319 319 321 322 321 322 321 320 320 319 319 319 318 318 319 321 323 324 326 326 327 327
335 335 337 340 341 341 339 337 336 332 326 320 316 318 317 317 316 317 317 319 320 322 321 319 319 319 318 317 316 314 312 313 315 316 318 320 322 323
331 330 331 331 335 341 339 334 332 329 325 319 317 316 317 318 318 315 315 317 315 320 320 320 320 320 319 318 317 315 312 311 310 311 312 312 313 316
333 329 328 328 328 329 337 334 328 324 321 318 317 316 315 315 316 318 320 322 322 323 321 318 318 318 317 318 317 315 313 312 311 310 310 310 309 310
334 332 330 329 326 325 327 326 333 327 323 321 319 318 319 322 322 322 323 320 318 326 323 320 321 319 317 312 315 313 312 311 310 310 309 309 309 308
332 329 329 326 330 329 327 326 324 326 331 332 327 326 325 326 325 322 323 323 321 322 323 318 322 318 314 313 314 313 311 310 310 309 309 308 307 307
332 330 330 325 317 325 321 316 315 316 323 326 325 327 324 323 328 326 324 323 324 324 325 316 321 316 314 312 314 313 311 310 309 309 308 307 306 305
326 320 328 324 312 314 321 317 314 311 311 313 312 313 313 314 317 320 323 321 319 320 324 319 318 316 313 311 311 313 311 310 309 308 308 307 305 305
325 317 310 312 309 310 326 321 317 316 317 317 314 314 317 314 320 320 316 311 312 317 318 316 318 317 313 314 311 310 309 309 308 308 307 306 304 301
323 315 312 307 307 308 313 326 320 318 319 322 320 320 322 319 316 319 318 315 312 312 316 316 314 316 313 313 313 311 310 308 306 306 305 304 303 304
319 314 309 304 303 304 310 306 306 308 316 320 318 315 315 314 317 317 317 317 317 315 315 316 312 311 309 308 312 315 314 313 309 309 308 306 304 305
319 310 304 301 301 306 306 307 306 314 319 315 314 313 314 313 317 318 321 320 319 319 317 316 313 312 310 308 307 311 313 313 312 312 312 309 307 305
309 309 311 312 308 313 310 312 316 315 314 314 314 314 316 315 316 312 312 312 312 315 320 318 316 313 310 309 308 306 309 309 315 315 314 313 312 311
310 313 314 315 314 315 317 319 315 315 316 316 316 314 314 314 312 314 312 312 310 309 313 317 319 318 317 314 309 310 310 310 313 315 313 311 313 313
309 314 312 314 315 316 316 316 314 314 317 316 316 314 312 312 309 312 312 310 309 309 309 311 315 313 310 314 318 310 309 306 308 310 312 309 306 311
310 314 314 319 320 317 317 316 314 316 318 318 315 312 313 313 307 311 311 311 310 309 309 311 310 308 304 300 309 309 306 306 306 305 306 306 304 306
310 312 316 318 319 318 318 316 315 317 317 315 314 313 314 312 311 310 310 310 308 308 307 310 310 309 305 303 303 306 305 306 306 305 305 306 307 310
309 310 315 320 320 320 321 321 319 315 315 315 315 315 314 313 312 311 310 305 307 308 307 307 312 313 311 311 305 305 309 305 310 308 306 304 302 302
314 314 318 321 320 322 321 319 317 314 316 315 315 315 314 313 312 311 310 309 309 308 308 310 314 310 309 307 305 306 307 310 306 307 308 307 303 299
318 318 317 319 321 322 320 318 315 315 313 315 313 316 316 313 314 312 311 310 309 308 308 307 308 309 308 308 306 305 305 306 307 306 305 305 305 304
Wind_Speed
5 5 3 3 2 2 1 6 5 4 3 3 3 5 4 4 9 7 8 13 14 14 13 13 13 13 14 14 14 14 13 10 7 7 13 17 19 19
4 6 6 4 4 3 3 3 3 4 4 3 4 3 5 5 10 7 9 13 15 14 13 13 13 13 14 13 14 16 17 15 14 16 17 15 17 17
9 10 8 8 5 4 4 4 3 6 5 3 3 4 5 7 7 7 7 6 6 12 11 11 12 12 12 13 14 15 17 19 20 20 19 18 17 16
10 11 11 6 8 8 7 9 7 6 6 8 3 3 5 5 5 6 4 4 4 8 10 10 11 11 12 13 13 13 13 14 16 16 15 14 15 15
10 11 11 11 8 7 8 7 6 7 7 6 4 3 3 2 4 3 3 1 2 7 9 10 10 11 12 12 12 12 12 13 13 13 12 13 13 14
10 10 10 10 9 7 8 8 7 8 8 8 6 3 2 2 1 2 1 1 2 3 1 8 8 11 13 13 12 11 11 11 11 12 12 12 12 13
7 8 10 13 17 14 6 8 7 7 7 7 5 3 2 2 2 3 3 4 2 3 4 4 4 4 5 11 11 11 9 9 10 10 10 10 10 11
5 6 7 11 12 12 15 18 6 8 8 6 4 5 4 3 3 3 2 2 2 3 4 4 6 6 6 5 11 10 8 8 8 8 8 8 9 9
8 8 8 8 6 7 9 14 16 13 8 3 5 4 5 4 4 3 3 2 2 3 2 3 3 4 5 6 13 11 10 9 8 7 7 7 7 7
8 6 5 7 8 5 8 8 8 9 8 7 7 5 5 5 1 2 3 2 1 3 3 3 3 3 5 4 12 10 9 9 10 8 7 6 6 5
7 7 5 6 9 9 7 6 6 6 7 9 9 8 7 5 4 3 3 4 4 3 1 2 2 4 4 4 5 11 10 10 11 11 10 9 8 7
6 5 10 6 7 8 4 6 6 5 6 4 1 2 4 4 8 6 4 5 3 4 3 2 3 2 3 3 7 6 5 10 10 11 12 11 10 4
6 4 3 5 5 6 9 5 3 3 2 5 5 4 4 4 4 5 4 3 4 4 2 3 3 2 2 3 4 7 7 5 6 6 9 11 11 9
5 5 4 2 3 4 3 2 4 5 4 6 4 4 4 4 3 4 3 0 2 3 1 1 2 3 3 3 3 6 7 6 7 7 7 8 14 14
4 6 8 3 3 3 2 3 6 5 3 4 4 3 3 3 1 1 5 6 4 3 4 2 1 3 2 3 3 1 4 6 7 7 6 7 6 5
6 5 5 3 5 3 2 4 1 4 4 3 3 2 2 2 2 2 2 1 2 5 4 5 3 1 2 4 2 4 4 2 7 7 5 6 5 7
5 4 3 4 5 5 4 4 4 3 2 1 1 1 2 1 3 1 0 2 2 1 4 3 5 6 5 5 3 4 3 3 2 3 4 5 7 9
2 5 7 8 8 7 5 4 3 1 1 1 2 2 1 3 1 3 2 1 2 1 1 1 4 3 3 6 6 3 3 3 2 4 4 2 4 5
4 7 8 7 3 4 4 5 5 4 2 3 1 2 1 1 3 3 1 3 1 3 3 3 3 3 3 1 3 7 2 2 3 4 4 2 1 3
6 8 5 5 4 4 3 3 6 5 4 2 2 2 2 2 3 1 4 2 2 2 3 4 5 3 3 3 2 4 10 6 4 4 3 3 4 9
8 8 8 4 4 4 3 4 4 3 3 2 2 4 3 2 3 4 4 4 3 2 5 5 4 10 4 2 2 6 8 14 8 6 4 3 3 3
9 10 7 5 5 4 4 5 4 4 4 4 5 4 2 3 4 3 4 4 2 5 4 3 2 3 3 5 7 8 4 4 7 13 9 6 4 3
9 9 6 6 4 5 5 5 6 7 8 9 7 5 4 4 2 3 4 4 4 5 4 4 4 3 3 3 5 5 7 9 4 4 7 10 14 12
Wind_Direction
332 347 333 340 328 139 216 149 146 143 105 129 102 39 68 83 98 90 87 86 81 75 70 69 67 62 56 47 39 32 18 9 7 41 81 83 83 81
23 15 12 15 43 89 108 132 114 121 110 68 71 81 58 73 91 85 83 80 76 74 71 66 65 62 59 56 51 44 40 49 56 80 72 74 77 77
26 19 37 34 55 46 73 85 102 96 112 82 72 41 51 65 58 59 64 67 70 74 74 70 67 63 61 58 56 53 51 56 65 68 73 70 70 76
27 25 31 37 49 55 60 57 57 76 112 119 90 71 62 53 63 63 55 62 79 81 83 76 72 68 64 62 60 59 53 57 64 66 65 75 79 78
39 33 27 26 37 68 67 66 70 94 102 115 104 75 81 58 69 53 54 41 75 113 104 99 94 84 73 66 62 55 50 48 52 55 56 57 68 80
61 50 43 37 29 62 88 81 84 89 106 106 106 105 94 102 132 149 150 225 196 210 91 133 114 99 92 79 71 68 66 64 63 64 64 65 63 74
72 76 70 63 53 46 58 101 98 99 104 114 118 121 128 159 193 192 217 170 182 179 159 165 162 136 104 83 83 75 73 74 76 77 76 74 77 78
127 127 112 77 61 53 61 55 90 128 129 132 143 147 150 177 172 212 139 165 198 200 176 194 182 157 131 108 119 112 106 100 96 93 92 91 91 90
40 30 63 47 60 79 59 51 41 40 76 121 119 148 161 165 163 169 211 201 143 175 150 170 148 129 122 137 146 148 145 137 129 124 117 112 113 117
56 66 59 66 31 76 77 66 58 51 49 68 67 66 63 31 27 195 193 132 153 180 200 179 182 133 167 158 172 162 157 157 154 153 150 146 148 152
67 24 74 65 6 22 108 102 90 88 63 83 105 109 100 74 55 348 233 226 230 176 178 109 206 146 171 174 176 179 181 186 182 173 175 179 183 190
104 77 52 44 12 9 155 156 147 178 140 144 138 143 150 134 71 59 8 352 2 95 14 349 202 174 181 171 165 176 194 206 205 206 195 198 198 208
137 122 82 28 39 33 46 66 102 355 227 195 195 205 202 183 98 78 19 8 24 78 298 1 326 193 241 158 170 184 191 180 203 213 221 223 208 215
90 101 116 42 63 31 69 16 351 321 257 235 116 76 65 79 103 125 191 237 90 118 209 7 313 51 339 335 190 180 199 178 187 205 198 210 223 226
80 113 131 138 308 130 196 251 286 265 267 75 80 95 105 157 228 228 226 204 196 214 207 171 44 348 319 295 306 15 145 208 199 208 182 199 210 195
122 137 168 214 257 201 253 255 292 26 29 40 58 105 148 160 161 83 353 312 207 199 184 165 195 254 288 297 330 305 305 170 198 200 184 219 213 211
159 166 198 217 217 203 218 194 152 204 199 114 55 22 106 20 52 17 183 304 335 79 184 185 222 235 251 248 271 273 294 351 13 156 181 225 214 221
174 199 214 225 219 194 164 163 131 237 74 111 103 70 8 102 66 289 187 269 271 343 18 132 192 240 270 267 205 279 344 17 349 173 250 274 278 268
228 220 225 226 180 133 166 185 150 119 142 269 143 143 235 17 197 248 216 236 84 41 339 297 234 240 271 64 205 173 233 281 293 302 279 287 278 298
234 248 269 183 160 161 187 161 146 157 198 206 209 223 192 207 273 232 267 198 145 224 267 269 255 197 160 229 246 267 205 221 209 244 260 276 275 278
213 244 252 183 153 169 174 109 81 80 94 148 270 217 216 229 267 259 264 232 224 233 250 263 222 190 196 171 210 263 255 214 201 204 222 230 245 283
208 226 223 155 161 172 144 137 154 189 201 212 229 218 183 269 267 298 302 304 230 233 256 273 169 193 206 207 235 248 251 254 227 235 232 207 188 242
249 214 181 155 158 160 159 174 211 214 207 216 224 183 207 216 265 276 270 286 275 291 311 318 313 326 290 263 266 254 244 256 208 182 249 227 234 237